www.pogodaiklimat.ru

ПОГОДА в Монтичелло, KY

  • Прогноз погоды в Монтичелло
  • Монитор погоды в Монтичелло
  • Климат в Монтичелло

АРХИВ ПОГОДЫ в Монтичелло

Время (UTC), дата Ветер
(напр.,м/с)
 
Видим.   Явления Облачность Т
(С)
Тd
(С)
f
(%)
Тe
(С)
Тes
(С)
Комфортность

P
(гПа)

Po
(гПа)
Тmin
(С)
Tmax
(С)
R
(мм)
SD
(см)
21:56 22.03 С  9
{13} 
16 км    ясно  +13.3  -1.7  35  +11  +11    1020.6  982.5         
23:56 22.03 С  16 км    ясно  +9.4  -0.6  50  +5  +5    1022.8  984.8         
00:56 23.03 С  16 км    ясно  +8.3  -0.6  53  +4  +4    1023.6  985.8         
01:56 23.03 СЗ  16 км    ясно  +6.1  -1.1  60  +2  +2    1024.7  986.8         
02:51 23.03 С  16 км    ясно  +5.0  -2.0  61  -0  -0      987.4         
03:56 23.03 С  16 км    ясно  +1.7  -3.3  69  -4  -4    1025.9  987.7         
04:56 23.03 С  5
{8} 
16 км    ясно  0.0  -3.3  78  -7  -7    1026.0  988.1  -0.6  +12.2     
05:16 23.03 С  16 км    ясно  +4.0  -4.0  56  -2  -2      988.1         
05:56 23.03 С  16 км    ясно  +2.2  -3.9  64  -4  -4    1026.3  988.4         
06:56 23.03 СВ  16 км    ясно  +2.2  -3.9  64  -4  -4    1026.9  988.4         
07:56 23.03 З  16 км    ясно  -1.7  -3.9  85  -7  -7    1026.8  988.7         
08:56 23.03 СЗ  16 км    ясно  -1.1  -4.4  78  -6  -6    1027.2  989.0         
09:56 23.03 нст  16 км    ясно  -3.3  -5.6  84  -9  -9    1027.7  989.7         
10:56 23.03 С  16 км    ясно  -6.1  -7.8  88  -12  -12    1029.1  990.7  -6.1  +4.4     
11:56 23.03 нст  16 км    ясно  +2.8  +0.6  85  -1  -1    1029.6  991.7         
12:56 23.03 С  16 км    ясно  +4.4  -2.8  59  0  +1    1030.6  992.0         
13:56 23.03 С  16 км    ясно  +6.1  -2.2  55  +3  +6    1030.7  992.6         
14:56 23.03 нст  16 км    ясно  +8.9  -3.3  42  +7  +14    1031.0  992.6         
15:56 23.03 С  16 км    ясно  +11.1  -3.9  35  +9  +16    1030.6  992.0         
16:56 23.03 нст  3
{7} 
16 км    ясно  +12.8  -3.9  31  +12  +24  опасность
простуды 
1030.3  991.7  -6.1  +12.8     
17:56 23.03 нст  3
{8} 
16 км    ясно  +13.9  -3.3  30  +13  +24  опасность
простуды 
1029.3  991.0         
18:56 23.03 СЗ  4
{8} 
16 км    ясно  +15.0  -5.6  24  +14  +20    1028.5  990.4         
19:56 23.03 С  5
{8} 
16 км    ясно  +15.6  -8.3  18  +14  +18    1028.4  990.0         
20:56 23.03 С  16 км    ясно  +15.6  -9.4  17  +14  +15    1027.7  989.4         
21:56 23.03 С  16 км    ясно  +13.9  -8.9  20  +12  +12    1027.5  989.4         
22:56 23.03 З  16 км    ясно  +8.9  -3.9  40  +7  +7    1027.9  989.7  +8.9  +15.6     
23:56 23.03 З  16 км    ясно  +6.7  -3.9  47  +4  +4    1028.0  990.0         
00:56 24.03 нст  16 км    ясно  +2.2  -2.8  69  -2  -2    1028.6  990.0         
01:56 24.03 нст  16 км    ясно  +2.8  -2.8  67  -1  -1    1028.3  990.0         
02:56 24.03 З  16 км    ясно  +2.2  -1.7  75  -3  -3    1028.2  990.0         
03:56 24.03 С  16 км    ясно  +3.3  0.0  79  -2  -2    1027.8  989.4         
04:56 24.03 нст  16 км    ясно  +2.8  -0.6  78  -1  -1    1027.6  989.4  +0.6  +8.9     
05:56 24.03 С  16 км    ясно  +1.1  -1.7  82  -4  -4    1027.4  989.4         
06:56 24.03 СВ  16 км    ясно  +0.6  -2.2  81  -4  -4    1027.2  989.0         
07:56 24.03 С  16 км    ясно  +0.6  -2.2  81  -5  -5    1026.6  988.4         
08:56 24.03 З  16 км    ясно  -0.6  -2.8  85  -6  -6    1026.6  988.4         
09:56 24.03 З  16 км    ясно  -0.6  -3.3  82  -7  -7    1026.8  988.4         
10:56 24.03 З  16 км    ясно  +1.7  -3.3  69  -4  -4    1026.5  988.7  -1.1  +2.8     
11:56 24.03 З  16 км    ясно  +7.2  0.0  60  +4  +4    1027.1  988.7         
12:56 24.03 СВ  16 км    ясно  +12.2  -3.9  32  +11  +13    1026.8  988.7         
13:56 24.03 В  16 км    ясно  +15.6  -2.2  29  +15  +20    1027.0  988.7         
14:56 24.03 З  6
{8} 
16 км    ясно  +18.9  -2.8  23  +18  +21    1026.5  988.4         
15:56 24.03 Ю  4
{10} 
16 км    ясно  +21.1  0.0  24  +21  +27  комфорт  1025.1  987.1         
16:17 24.03 З  9
{14} 
16 км    ясно  +22.0  0.0  23  +21  +22  комфорт    987.1         
16:56 24.03 ЮЗ  9
{14} 
16 км    ясно  +21.1  +0.6  26  +21  +21  комфорт  1024.5  986.4  +1.7  +21.7     
17:56 24.03 З  9
{12} 
16 км    ясно  +20.6  +1.1  27  +20  +21    1023.6  985.4         
18:56 24.03 З  8
{11} 
16 км    5/0 3300 м
[средняя] 
+19.4  +1.7  31  +19  +20    1023.2  985.1         
19:56 24.03 З  7
{9} 
16 км    8/0 2850 м
[средняя] 
+19.4  +2.8  33  +19  +20    1022.9  984.8         

 

Местоположение метеостанции Wayne County Airport: широта 36.8553 долгота -84.8561 высота над уровнем моря 294 м.

В архиве по умолчанию представлена погода в Монтичелло за последние 1-2 суток. Обновление информации о фактической погоде в базе происходит ежечасно! Архивные данные за месяц целиком и за предыдущие месяцы Вы можете получить, выбрав интересующий диапазон дат из раскрывающегося списка и нажав кнопку "Ввод!".

Внимание! Архив погоды МЕТАР в базе сайта хранится не более 60 дней. Нет смысла пытаться выбрать более раннюю дату.

Внимание! Время в таблицах - всемирное. Для получения местного времени необходимо прибавить поправку, которая в Монтичелло равна -5 ч.

Ветер - указаны скорость ветра в м/с и направление, откуда дует ветер: С - северный, СВ - северо-восточный, В - восточный, ЮВ - юго-восточный, Ю - южный, ЮЗ - юго-западный, З - западный, СЗ - северо-западный.
Видимость - горизонтальная дальность видимости в метрах или километрах. При видимости от 1 до 10 км при отсутствии осадков обычно наблюдается дымка, при ухудшении видимости до 1 км и менее - туман. В сухую погоду видимость может ухудшаться дымом, пылью или мглою.
Атмосферные явления - указаны явления, наблюдавшиеся в указанный момент времени.
Облачность - указаны через наклонную черту верхняя и нижняя облачность в баллах и высота нижней границы облаков в метрах. Внимание: облачность, как и прочие метеорологические величины в США измеряются автоматическими метеостанциями. Указанные значения в баллах носят условный характер и показывают процент времени, в течение которого, в среднем, лазерный луч высотомера отражался от облаков обратно.
T - Температура воздуха - температура, измеренная на высоте 2 м над землей.
Td - Температура точки росы - температура, при понижении до которой содержащийся в воздухе водяной пар достигнет насыщения.
f - Относительная влажность воздуха - влажноcть воздуха, измеренная на высоте 2 м над землей.
Te - Эффективная температура - температура, которую ощущает одетый по сезону человек в тени. Характеристика душности погоды. При расчете учитывается влияние влажности воздуха и скорости ветра на теплоощущения человека.
Tes - Эффективная температура на солнце - температура, которую ощущает человек, с поправкой на солнечный нагрев. Характеристика знойности погоды. Зависит от высоты солнца над горизонтом, облачности и скорости ветра. Ночью, в пасмурную погоду, а также при ветре 12 м/с и более поправка равна нулю.
P - Атмосферное давление - приведенное к уровню моря атмосферное давление.
Po - Атмосферное давление - измеренное на уровне метеостанции атмосферное давление.
Tmin - Минимальная температура - минимум температуры воздуха на высоте 2 м над землей.
Tmax - Максимальная температура - максимум температуры воздуха на высоте 2 м над землей.
R - Количество осадков - Количество выпавших осадков за 3 или 6 часов, мм.
SD - Снежный покров - Высота снежного покрова, см.